When you browse on this site, cookies collect data to enhance your experience and personalize the content and advertising you see.
Visit our Privacy Policy to learn more. By continuing to use the site, you agree to this use of cookies and data.
  • In Sweden
  • List of Countries
  • For 7 days
  • Water Temperature
  • Satellite Maps
  • Weather Map
  • Weather Widgets
  • user-avatar
    Login

    Hourly Weather Baleyara

    Today, 18 July, Thursday

    Time Temperature Precipitation Wind Pressure Humidity
    00:00 +37°C° 0 mm 4 mps 737 mmHg 35%
    01:00 +36°C° 0 mm 5 mps 737 mmHg 38%
    02:00 +35°C° 0 mm 5 mps 737 mmHg 41%
    03:00 +34°C° 0 mm 6 mps 736 mmHg 43%
    04:00 +34°C° 0 mm 6 mps 737 mmHg 44%
    05:00 +34°C° 0 mm 6 mps 737 mmHg 45%
    06:00 +33°C° 0 mm 6 mps 737 mmHg 44%
    07:00 +35°C° 0 mm 6 mps 737 mmHg 41%
    08:00 +36°C° 0 mm 7 mps 738 mmHg 38%
    09:00 +38°C° 0 mm 7 mps 738 mmHg 34%
    10:00 +39°C° 0 mm 7 mps 738 mmHg 32%
    11:00 +40°C° 0 mm 6 mps 738 mmHg 30%
    12:00 +41°C° 0 mm 6 mps 737 mmHg 27%
    13:00 +42°C° 0 mm 5 mps 737 mmHg 26%
    14:00 +43°C° 0 mm 4 mps 736 mmHg 25%
    15:00 +43°C° 0 mm 3 mps 735 mmHg 24%
    16:00 +43°C° 0 mm 3 mps 735 mmHg 24%
    17:00 +43°C° 0 mm 3 mps 734 mmHg 24%
    18:00 +43°C° 0 mm 4 mps 734 mmHg 24%
    19:00 +42°C° 0 mm 5 mps 735 mmHg 27%
    20:00 +41°C° 0 mm 6 mps 735 mmHg 30%
    21:00 +39°C° 0 mm 7 mps 735 mmHg 33%
    22:00 +38°C° 0 mm 8 mps 735 mmHg 37%
    23:00 +37°C° 0 mm 8 mps 736 mmHg 41%

    Tomorrow, 19 July, Friday

    Time Temperature Precipitation Wind Pressure Humidity
    00:00 +35°C° 0 mm 9 mps 736 mmHg 46%
    01:00 +34°C° 0 mm 8 mps 736 mmHg 47%
    02:00 +34°C° 0 mm 8 mps 736 mmHg 48%
    03:00 +34°C° 0 mm 7 mps 736 mmHg 49%
    04:00 +33°C° 0 mm 7 mps 736 mmHg 51%
    05:00 +33°C° 0 mm 7 mps 737 mmHg 53%
    06:00 +33°C° 0 mm 7 mps 738 mmHg 56%
    07:00 +33°C° 0 mm 8 mps 738 mmHg 56%
    08:00 +33°C° 0 mm 8 mps 738 mmHg 57%
    09:00 +33°C° 0 mm 9 mps 738 mmHg 58%
    10:00 +34°C° 0 mm 9 mps 738 mmHg 52%
    11:00 +37°C° 0 mm 9 mps 738 mmHg 47%
    12:00 +39°C° 0 mm 9 mps 737 mmHg 41%
    13:00 +39°C° 0 mm 8 mps 737 mmHg 39%
    14:00 +40°C° 0 mm 7 mps 736 mmHg 37%
    15:00 +41°C° 0 mm 6 mps 735 mmHg 35%
    16:00 +40°C° 0 mm 6 mps 735 mmHg 36%
    17:00 +40°C° 0 mm 6 mps 735 mmHg 37%
    18:00 +39°C° 0 mm 5 mps 736 mmHg 38%
    19:00 +38°C° 0 mm 6 mps 736 mmHg 41%
    20:00 +38°C° 0 mm 6 mps 736 mmHg 44%
    21:00 +36°C° 0 mm 6 mps 736 mmHg 47%
    22:00 +35°C° 0 mm 7 mps 737 mmHg 51%
    23:00 +34°C° 0 mm 7 mps 737 mmHg 56%

    Day after tomorrow, 20 July, Saturday

    Time Temperature Precipitation Wind Pressure Humidity
    00:00 +33°C° 0 mm 8 mps 737 mmHg 60%
    01:00 +32°C° 0.2 mm 8 mps 737 mmHg 62%
    02:00 +31°C° 0.2 mm 8 mps 737 mmHg 63%
    03:00 +30°C° 0.2 mm 7 mps 737 mmHg 65%
    04:00 +29°C° 0.1 mm 7 mps 738 mmHg 66%
    05:00 +29°C° 0.1 mm 7 mps 738 mmHg 68%
    06:00 +29°C° 0.1 mm 6 mps 739 mmHg 69%
    07:00 +30°C° 0 mm 6 mps 739 mmHg 64%
    08:00 +32°C° 0 mm 6 mps 740 mmHg 59%
    09:00 +33°C° 0 mm 6 mps 740 mmHg 55%
    10:00 +34°C° 0 mm 7 mps 740 mmHg 50%
    11:00 +35°C° 0 mm 7 mps 740 mmHg 46%
    12:00 +37°C° 0 mm 8 mps 739 mmHg 42%
    13:00 +38°C° 0 mm 7 mps 739 mmHg 40%
    14:00 +38°C° 0 mm 6 mps 738 mmHg 37%
    15:00 +39°C° 0 mm 5 mps 738 mmHg 35%
    16:00 +39°C° 0 mm 5 mps 738 mmHg 35%
    17:00 +37°C° 0 mm 4 mps 738 mmHg 34%
    18:00 +37°C° 0 mm 4 mps 738 mmHg 34%
    19:00 +37°C° 0 mm 4 mps 738 mmHg 36%
    20:00 +36°C° 0 mm 4 mps 738 mmHg 37%
    21:00 +35°C° 0 mm 5 mps 739 mmHg 39%
    22:00 +34°C° 0 mm 5 mps 739 mmHg 44%
    23:00 +33°C° 0 mm 5 mps 739 mmHg 50%

    21 July, Sunday

    Time Temperature Precipitation Wind Pressure Humidity
    00:00 +32°C° 0 mm 5 mps 739 mmHg 55%
    01:00 +32°C° 0 mm 5 mps 739 mmHg 56%
    02:00 +32°C° 0 mm 5 mps 739 mmHg 56%
    03:00 +30°C° 0 mm 5 mps 738 mmHg 57%
    04:00 +30°C° 0 mm 5 mps 739 mmHg 59%
    05:00 +29°C° 0 mm 5 mps 739 mmHg 61%
    06:00 +29°C° 0 mm 5 mps 739 mmHg 62%
    07:00 +30°C° 0 mm 5 mps 739 mmHg 58%
    08:00 +32°C° 0 mm 6 mps 739 mmHg 54%
    09:00 +34°C° 0 mm 6 mps 740 mmHg 51%
    10:00 +35°C° 0 mm 5 mps 740 mmHg 46%
    11:00 +36°C° 0 mm 4 mps 739 mmHg 42%
    12:00 +37°C° 0 mm 3 mps 739 mmHg 37%
    13:00 +38°C° 0 mm 3 mps 738 mmHg 35%
    14:00 +39°C° 0 mm 3 mps 737 mmHg 33%
    15:00 +39°C° 0 mm 2 mps 736 mmHg 31%
    16:00 +39°C° 0 mm 2 mps 736 mmHg 31%
    17:00 +39°C° 0 mm 2 mps 736 mmHg 30%
    18:00 +39°C° 0 mm 2 mps 736 mmHg 30%
    19:00 +38°C° 0.2 mm 2 mps 737 mmHg 32%
    20:00 +37°C° 0.2 mm 2 mps 737 mmHg 34%
    21:00 +37°C° 0.2 mm 2 mps 738 mmHg 36%
    22:00 +36°C° 0.2 mm 3 mps 738 mmHg 39%
    23:00 +35°C° 0.2 mm 3 mps 737 mmHg 41%

    22 July, Monday

    Time Temperature Precipitation Wind Pressure Humidity
    00:00 +34°C° 0.2 mm 3 mps 737 mmHg 43%
    01:00 +34°C° 0.2 mm 3 mps 737 mmHg 46%
    02:00 +34°C° 0.2 mm 4 mps 737 mmHg 48%
    03:00 +33°C° 0.2 mm 4 mps 736 mmHg 51%
    04:00 +33°C° 0 mm 5 mps 737 mmHg 53%
    05:00 +33°C° 0 mm 5 mps 737 mmHg 55%
    06:00 +32°C° 0 mm 6 mps 737 mmHg 57%
    07:00 +33°C° 0 mm 6 mps 738 mmHg 54%
    08:00 +34°C° 0 mm 6 mps 738 mmHg 51%
    09:00 +35°C° 0 mm 6 mps 739 mmHg 49%
    10:00 +36°C° 0 mm 6 mps 738 mmHg 45%
    11:00 +37°C° 0 mm 5 mps 738 mmHg 41%
    12:00 +39°C° 0 mm 5 mps 737 mmHg 37%
    13:00 +40°C° 0.1 mm 4 mps 737 mmHg 36%
    14:00 +39°C° 0.1 mm 3 mps 736 mmHg 35%
    15:00 +39°C° 0.1 mm 2 mps 736 mmHg 34%
    16:00 +37°C° 0.2 mm 4 mps 735 mmHg 44%
    17:00 +34°C° 0.2 mm 5 mps 735 mmHg 54%
    18:00 +32°C° 0.2 mm 7 mps 735 mmHg 65%
    19:00 +30°C° 0 mm 7 mps 735 mmHg 65%
    20:00 +30°C° 0 mm 7 mps 736 mmHg 65%
    21:00 +29°C° 0 mm 6 mps 736 mmHg 64%
    22:00 +29°C° 0.1 mm 7 mps 736 mmHg 64%
    23:00 +29°C° 0.1 mm 7 mps 737 mmHg 63%

    23 July, Tuesday

    Time Temperature Precipitation Wind Pressure Humidity
    00:00 +28°C° 0.1 mm 7 mps 737 mmHg 62%
    01:00 +28°C° 0.3 mm 6 mps 737 mmHg 63%
    02:00 +28°C° 0.3 mm 5 mps 737 mmHg 64%
    03:00 +27°C° 0.3 mm 4 mps 737 mmHg 65%
    04:00 +27°C° 0.4 mm 4 mps 737 mmHg 66%
    05:00 +27°C° 0.4 mm 4 mps 737 mmHg 68%
    06:00 +27°C° 0.4 mm 4 mps 738 mmHg 69%
    07:00 +28°C° 0.1 mm 4 mps 738 mmHg 65%
    08:00 +29°C° 0.1 mm 5 mps 738 mmHg 60%
    09:00 +30°C° 0.1 mm 5 mps 739 mmHg 55%
    10:00 +33°C° 0 mm 6 mps 739 mmHg 51%
    11:00 +34°C° 0 mm 6 mps 738 mmHg 47%
    12:00 +36°C° 0 mm 7 mps 738 mmHg 44%
    13:00 +36°C° 0 mm 6 mps 738 mmHg 42%
    14:00 +36°C° 0 mm 5 mps 737 mmHg 40%
    15:00 +37°C° 0 mm 5 mps 736 mmHg 39%
    16:00 +37°C° 0 mm 4 mps 736 mmHg 39%
    17:00 +36°C° 0 mm 4 mps 737 mmHg 39%
    18:00 +36°C° 0 mm 3 mps 737 mmHg 40%
    19:00 +36°C° 0 mm 4 mps 737 mmHg 42%
    20:00 +35°C° 0 mm 4 mps 738 mmHg 45%
    21:00 +34°C° 0 mm 5 mps 738 mmHg 48%
    22:00 +34°C° 0 mm 5 mps 738 mmHg 50%
    23:00 +33°C° 0 mm 5 mps 738 mmHg 53%
    Show more